Starlink 33694

operational
NORAD ID: 63407 Int'l Des: 2025-065 Owner: SPXS Country: US Constellation: starlink
LEOCIRCULAR

About Starlink 33694

Description loading...

Live Position

Loading 3D Globe...

Upcoming Passes

Altitude History

Altitude vs Time

uPlot chart will show altitude changes over time

Two-Line Element Set

1 63407U 25065J 25346.99636097 .00039861 00000-0 14501-2 0 9997
2 63407 42.9993 236.4696 0001168 280.2427 79.8293 15.27582279 39586
Epoch: Dec 12, 2025 • Age: 14 hours

Current Status

Altitude 483.4 km
Velocity 7.63 km/s
Sub-Earth Point -6.22°S, 65.98°W
Launch Date Mar 31, 2025
Age 0.7 years
Type internet

Technical Details

Classification Payload
Mass 575.00 kg
Dry Mass 530.00 kg
Total Mass 575.00 kg
Length 0.30 m
Diameter 4.10 m
Span 29.00 m
Shape Box + pan
Manufacturer SPXS
Bus Type Starlink V2MO
Phase Status In Orbit
Owner/State SPXS/US

Large Constellations

Loading constellations...